• In Österreich
  • Länderverzeichnis
  • Für 7 Tage
  • Wassertemperatur
  • Satellitenkarten
  • Wetterkarte
  • News
  • Widgets
  • user-avatar
    Anmelden

    Stündliche Wetter Namibe

    Heute, 21 Oktober, Samstag

    Zeit Temperatur Niederschläge Wind Luftdruck Luftfeuchtigkeit
    00:00 +26°C° 0 mm 3 m/S 759 mmHg 64%
    01:00 +25°C° 0 mm 3 m/S 759 mmHg 64%
    02:00 +25°C° 0 mm 3 m/S 758 mmHg 66%
    03:00 +25°C° 0 mm 3 m/S 758 mmHg 67%
    04:00 +24°C° 0 mm 3 m/S 758 mmHg 69%
    05:00 +25°C° 0 mm 2 m/S 758 mmHg 69%
    06:00 +25°C° 0 mm 2 m/S 759 mmHg 69%
    07:00 +25°C° 0 mm 2 m/S 759 mmHg 68%
    08:00 +27°C° 0 mm 2 m/S 759 mmHg 59%
    09:00 +30°C° 0 mm 3 m/S 759 mmHg 50%
    10:00 +33°C° 0 mm 3 m/S 759 mmHg 41%
    11:00 +34°C° 0 mm 4 m/S 759 mmHg 40%
    12:00 +34°C° 0 mm 4 m/S 758 mmHg 38%
    13:00 +35°C° 0 mm 5 m/S 758 mmHg 37%
    14:00 +34°C° 0 mm 5 m/S 757 mmHg 39%
    15:00 +33°C° 0 mm 6 m/S 757 mmHg 41%
    16:00 +32°C° 0 mm 6 m/S 757 mmHg 43%
    17:00 +29°C° 0 mm 5 m/S 757 mmHg 47%
    18:00 +28°C° 0 mm 5 m/S 758 mmHg 51%
    19:00 +26°C° 0 mm 4 m/S 758 mmHg 56%
    20:00 +26°C° 0 mm 4 m/S 759 mmHg 57%
    21:00 +26°C° 0 mm 4 m/S 759 mmHg 58%
    22:00 +25°C° 0 mm 3 m/S 760 mmHg 59%
    23:00 +25°C° 0 mm 4 m/S 760 mmHg 60%

    Morgen, 22 Oktober, Sonntag

    Zeit Temperatur Niederschläge Wind Luftdruck Luftfeuchtigkeit
    00:00 +25°C° 0 mm 4 m/S 759 mmHg 62%
    01:00 +23°C° 0 mm 4 m/S 759 mmHg 63%
    02:00 +24°C° 0 mm 3 m/S 759 mmHg 65%
    03:00 +24°C° 0 mm 3 m/S 759 mmHg 66%
    04:00 +23°C° 0 mm 2 m/S 758 mmHg 67%
    05:00 +24°C° 0 mm 2 m/S 759 mmHg 66%
    06:00 +24°C° 0 mm 2 m/S 759 mmHg 64%
    07:00 +25°C° 0 mm 2 m/S 759 mmHg 62%
    08:00 +27°C° 0 mm 2 m/S 759 mmHg 52%
    09:00 +30°C° 0 mm 3 m/S 759 mmHg 42%
    10:00 +33°C° 0 mm 3 m/S 759 mmHg 33%
    11:00 +34°C° 0 mm 4 m/S 758 mmHg 32%
    12:00 +35°C° 0 mm 5 m/S 758 mmHg 30%
    13:00 +36°C° 0 mm 5 m/S 757 mmHg 29%
    14:00 +35°C° 0 mm 5 m/S 757 mmHg 32%
    15:00 +33°C° 0 mm 5 m/S 756 mmHg 35%
    16:00 +32°C° 0 mm 5 m/S 756 mmHg 38%
    17:00 +30°C° 0 mm 5 m/S 756 mmHg 43%
    18:00 +28°C° 0 mm 4 m/S 757 mmHg 48%
    19:00 +27°C° 0 mm 3 m/S 758 mmHg 52%
    20:00 +26°C° 0 mm 3 m/S 758 mmHg 54%
    21:00 +26°C° 0 mm 3 m/S 758 mmHg 56%
    22:00 +26°C° 0 mm 3 m/S 759 mmHg 57%
    23:00 +25°C° 0 mm 3 m/S 758 mmHg 60%

    übermorgen, 23 Oktober, Montag

    Zeit Temperatur Niederschläge Wind Luftdruck Luftfeuchtigkeit
    00:00 +25°C° 0 mm 3 m/S 758 mmHg 62%
    01:00 +25°C° 0 mm 3 m/S 757 mmHg 64%
    02:00 +24°C° 0 mm 3 m/S 757 mmHg 64%
    03:00 +24°C° 0 mm 2 m/S 757 mmHg 65%
    04:00 +24°C° 0 mm 2 m/S 756 mmHg 65%
    05:00 +25°C° 0 mm 2 m/S 757 mmHg 63%
    06:00 +25°C° 0 mm 1 m/S 757 mmHg 60%
    07:00 +26°C° 0 mm 1 m/S 757 mmHg 57%
    08:00 +28°C° 0 mm 2 m/S 757 mmHg 49%
    09:00 +31°C° 0 mm 2 m/S 757 mmHg 41%
    10:00 +35°C° 0 mm 3 m/S 757 mmHg 33%
    11:00 +36°C° 0 mm 3 m/S 757 mmHg 32%
    12:00 +36°C° 0 mm 4 m/S 756 mmHg 31%
    13:00 +37°C° 0 mm 5 m/S 755 mmHg 31%
    14:00 +36°C° 0,1 mm 5 m/S 755 mmHg 34%
    15:00 +35°C° 0,1 mm 5 m/S 755 mmHg 37%
    16:00 +34°C° 0,1 mm 5 m/S 754 mmHg 39%
    17:00 +32°C° 0,1 mm 4 m/S 755 mmHg 44%
    18:00 +30°C° 0,1 mm 4 m/S 756 mmHg 48%
    19:00 +29°C° 0,1 mm 3 m/S 757 mmHg 52%
    20:00 +28°C° 0,2 mm 3 m/S 757 mmHg 53%
    21:00 +28°C° 0,2 mm 2 m/S 757 mmHg 55%
    22:00 +28°C° 0,2 mm 2 m/S 758 mmHg 57%
    23:00 +28°C° 0,1 mm 2 m/S 757 mmHg 58%

    24 Oktober, Dienstag

    Zeit Temperatur Niederschläge Wind Luftdruck Luftfeuchtigkeit
    00:00 +27°C° 0,1 mm 2 m/S 757 mmHg 60%
    01:00 +27°C° 0,1 mm 2 m/S 756 mmHg 62%
    02:00 +26°C° 0 mm 2 m/S 756 mmHg 67%
    03:00 +26°C° 0 mm 2 m/S 756 mmHg 71%
    04:00 +25°C° 0 mm 2 m/S 756 mmHg 75%
    05:00 +25°C° 0,1 mm 2 m/S 757 mmHg 74%
    06:00 +26°C° 0,1 mm 2 m/S 757 mmHg 74%
    07:00 +26°C° 0,1 mm 3 m/S 758 mmHg 73%
    08:00 +28°C° 0 mm 3 m/S 758 mmHg 65%
    09:00 +30°C° 0 mm 4 m/S 757 mmHg 56%
    10:00 +34°C° 0 mm 5 m/S 757 mmHg 48%
    11:00 +34°C° 0,1 mm 5 m/S 757 mmHg 48%
    12:00 +35°C° 0,1 mm 6 m/S 756 mmHg 48%
    13:00 +35°C° 0,1 mm 6 m/S 756 mmHg 48%
    14:00 +34°C° 0,6 mm 6 m/S 756 mmHg 51%
    15:00 +33°C° 0,6 mm 5 m/S 756 mmHg 54%
    16:00 +32°C° 0,6 mm 5 m/S 756 mmHg 58%
    17:00 +30°C° 0,2 mm 4 m/S 756 mmHg 63%
    18:00 +29°C° 0,2 mm 4 m/S 757 mmHg 68%
    19:00 +27°C° 0,2 mm 3 m/S 758 mmHg 73%
    20:00 +27°C° 1,1 mm 2 m/S 758 mmHg 75%
    21:00 +27°C° 1,1 mm 2 m/S 759 mmHg 77%
    22:00 +27°C° 1,1 mm 2 m/S 760 mmHg 78%
    23:00 +27°C° 0,3 mm 1 m/S 759 mmHg 78%

    25 Oktober, Mittwoch

    Zeit Temperatur Niederschläge Wind Luftdruck Luftfeuchtigkeit
    00:00 +27°C° 0,3 mm 1 m/S 758 mmHg 77%
    01:00 +27°C° 0,3 mm 1 m/S 758 mmHg 76%
    02:00 +27°C° 0,2 mm 1 m/S 758 mmHg 75%
    03:00 +27°C° 0,2 mm 1 m/S 757 mmHg 75%
    04:00 +27°C° 0,2 mm 1 m/S 757 mmHg 74%
    05:00 +27°C° 0,1 mm 1 m/S 758 mmHg 74%
    06:00 +27°C° 0,1 mm 1 m/S 758 mmHg 73%
    07:00 +28°C° 0,1 mm 1 m/S 758 mmHg 73%
    08:00 +29°C° 0,1 mm 2 m/S 758 mmHg 67%
    09:00 +31°C° 0,1 mm 2 m/S 758 mmHg 61%
    10:00 +33°C° 0,1 mm 3 m/S 758 mmHg 55%
    11:00 +34°C° 0 mm 3 m/S 758 mmHg 53%
    12:00 +34°C° 0 mm 4 m/S 757 mmHg 52%
    13:00 +35°C° 0 mm 5 m/S 757 mmHg 51%
    14:00 +34°C° 0 mm 5 m/S 756 mmHg 53%
    15:00 +34°C° 0 mm 5 m/S 756 mmHg 54%
    16:00 +33°C° 0 mm 5 m/S 756 mmHg 56%
    17:00 +32°C° 0 mm 5 m/S 756 mmHg 60%
    18:00 +30°C° 0 mm 4 m/S 757 mmHg 64%
    19:00 +28°C° 0 mm 3 m/S 758 mmHg 68%
    20:00 +28°C° 0 mm 3 m/S 758 mmHg 68%
    21:00 +28°C° 0 mm 4 m/S 758 mmHg 68%
    22:00 +28°C° 0 mm 4 m/S 759 mmHg 68%
    23:00 +28°C° 0,1 mm 3 m/S 758 mmHg 68%

    26 Oktober, Donnerstag

    Zeit Temperatur Niederschläge Wind Luftdruck Luftfeuchtigkeit
    00:00 +27°C° 0,1 mm 3 m/S 758 mmHg 68%
    01:00 +27°C° 0,1 mm 3 m/S 757 mmHg 68%
    02:00 +27°C° 0,1 mm 3 m/S 757 mmHg 69%
    03:00 +27°C° 0,1 mm 2 m/S 757 mmHg 69%
    04:00 +26°C° 0,1 mm 2 m/S 757 mmHg 69%
    05:00 +27°C° 0 mm 2 m/S 757 mmHg 67%
    06:00 +27°C° 0 mm 2 m/S 758 mmHg 66%
    07:00 +27°C° 0 mm 2 m/S 758 mmHg 64%
    08:00 +29°C° 0 mm 2 m/S 758 mmHg 57%
    09:00 +31°C° 0 mm 3 m/S 758 mmHg 50%
    10:00 +34°C° 0 mm 3 m/S 758 mmHg 44%
    11:00 +35°C° 0 mm 4 m/S 757 mmHg 42%
    12:00 +36°C° 0 mm 5 m/S 757 mmHg 40%
    13:00 +36°C° 0 mm 6 m/S 756 mmHg 38%
    14:00 +35°C° 0 mm 6 m/S 756 mmHg 41%
    15:00 +34°C° 0 mm 6 m/S 756 mmHg 43%
    16:00 +33°C° 0 mm 7 m/S 755 mmHg 46%
    17:00 +32°C° 0 mm 6 m/S 756 mmHg 49%
    18:00 +29°C° 0 mm 5 m/S 757 mmHg 52%
    19:00 +28°C° 0 mm 4 m/S 757 mmHg 55%
    20:00 +28°C° 0 mm 3 m/S 758 mmHg 53%
    21:00 +29°C° 0 mm 2 m/S 758 mmHg 51%
    22:00 +29°C° 0 mm 2 m/S 758 mmHg 49%
    23:00 +29°C° 0 mm 2 m/S 757 mmHg 51%
    Mehr zeigen